    Orbital elements:
        C/2010 G2 (Hill)
    Epoch 2011 Aug. 27.0 TT = JDT 2455800.5
    T 2011 Sept. 2.07002 TT                                 MPC
    q   1.9809520            (2000.0)            P               Q
    z  +0.0103991      Peri.  137.42341     +0.14257019     +0.42753397
     +/-0.0000293      Node   246.78118     +0.41761993     +0.79170388
    e   0.9793998      Incl.  103.74554     +0.89736689     -0.43637103
    Residuals in seconds of arc
    100410 703  0.1+  0.0     100420 372  0.0   0.6+    100522 B33  0.3+  0.7-
    100410 703  0.8+  0.9+    100422 585  1.1+  0.6-    100523 473  0.4-  0.2+
    100410 703  0.6-  0.3-    100422 585  1.1-  0.9-    100523 473  0.4-  0.0
    100410 703  1.0-  1.3-    100423 585  1.1+  0.1-    100524 204  0.0   0.1+
    100410 703  0.3+  0.2-    100423 585  0.4+  0.1-    100524 B49  0.0   1.1+
    100410 703  0.2+  0.6-    100423 585  0.0   0.3+    100524 B49  0.8+  0.2+
    100410 703  0.4-  1.0-    100423 585  0.2+  0.6-    100524 B49  0.9+  0.2+
    100410 703  0.9-  0.5-    100423 585  0.5-  0.1-    100524 160  1.2+  1.0+
    100410 G96  0.5-  0.2-    100423 372  0.6-  0.5-    100524 160  0.1-  0.0
    100410 G96  0.5-  0.4-    100423 372  0.1-  1.1+    100524 160  0.7-  0.4-
    100410 G96  0.5-  0.2-    100424 372  0.3+  0.5+    100524 204  0.1-  0.1-
    100410 G96  0.4-  0.4-    100424 372  0.6+  0.1+    100525 213  0.0   0.3+
    100410 114  0.2+  0.3+    100426 G96  0.0   0.1-    100525 213  0.5+  0.0
    100410 114  0.6+  0.3-    100426 G96  0.2+  0.4-    100525 213  0.0   1.2+
    100410 114  0.3+  0.3+    100426 G96  0.1+  1.0-    100526 160  0.0   0.8-
    100411 B33  0.1-  1.4+    100429 473  0.3-  0.1+    100526 160  0.4+  0.4+
    100411 B33  0.3-  1.0+    100429 473  0.1-  0.0     100526 160  0.8+  1.3+
    100411 H10  0.7+  0.3+    100430 160  0.5-  0.9+    100531 B33  0.8+  0.5-
    100411 H10  0.1-  0.1-    100430 160  0.2+  0.4+    100531 B33  0.0   0.6-
    100411 H01  0.3+  0.2+    100430 160  0.4+  0.5+    100531 B33  0.1-  1.2-
    100411 H01  0.3+  0.5+    100430 473  0.0   0.2+    100531 160  0.4-  0.5-
    100411 H01  0.2+  0.2+    100430 473  0.4-  0.3+    100531 160  0.6-  0.5-
    100411 H01  0.1+  0.4+    100501 160 (2.8-  1.8+)   100531 160  0.8-  0.5-
    100411 H10  0.6+  0.5-    100501 160  1.6-  1.1+    100602 703  0.5-  0.6-
    100411 H10  0.4-  0.6+    100501 160  1.2-  0.3+    100602 703  0.2+  0.2+
    100411 926  0.4+  0.3+    100501 473  0.4-  0.2+    100602 703  0.8+  1.2-
    100411 H10  0.5-  0.2-    100501 473  0.2-  0.0     100602 D93  1.4-  1.5+
    100411 926  0.5+  0.1-    100501 461  0.1-  0.6+    100602 D93  0.5-  0.5+
    100411 926  0.2+  0.2+    100501 461  0.0   0.3+    100602 D93  0.4-  0.2+
    100411 H06  0.5-  0.9-    100501 461  0.0   0.2+    100602 585  1.2+  0.4+
    100411 850  0.5+  0.1-    100502 372  0.7+  0.7+    100602 585  0.8+  0.7+
    100411 H06  0.1-  0.2+    100504 367 (0.3+  2.0-)   100602 585  0.3+  0.3-
    100411 850  0.3+  0.1-    100504 367  0.3-  1.1-    100602 C10  0.5+  0.9-
    100411 H11  0.8+  0.2-    100504 J01  0.1+  0.0     100602 C10  0.2-  0.2-
    100411 H11  0.2-  1.0+    100504 J01  0.3-  0.3-    100603 J01  0.4+  0.4+
    100411 H11  0.6+  0.3+    100504 J01  0.1+  0.6-    100603 J01  0.5+  0.4+
    100411 850  0.8-  0.5+    100506 850  0.2-  1.0-    100603 J01  0.4+  0.5+
    100411 704  0.5-  0.5+    100506 850  0.3-  0.4+    100604 B09  0.9-  0.3+
    100411 704  0.9+  1.1+    100507 900  0.4+  0.1+    100604 B09  0.8-  0.3+
    100411 H21  0.2+  0.9-    100507 900  0.2+  0.7+    100604 B09  0.6-  1.7+
    100411 H21  0.4+  1.1-    100508 H45  0.2-  0.1-    100606 157  0.2-  0.2+
    100411 H21  0.6+  1.3-    100508 H45  0.5-  0.4+    100606 157  0.0   0.0
    100411 704  0.1-  0.9+    100508 H45  0.1-  0.1-    100606 157  0.0   0.3+
    100411 G96  0.2-  0.2-    100508 H45  0.2+  0.2+    100606 B09  0.1-  0.7-
    100411 704  0.5-  0.9+    100508 H45  0.0   0.1-    100606 B09  0.0   0.5-
    100411 G96  0.0   0.7-    100508 H45  0.5+  0.4-    100606 B09  0.2+  0.2-
    100411 704  0.3-  0.6+    100508 157  0.0   0.7+    100607 H45  0.1-  0.8+
    100411 G96  0.3-  0.3-    100509 157  0.1-  0.4-    100607 H45  0.6-  0.2+
    100411 G96  0.1+  0.3-    100509 157  0.2+  0.0     100607 H45  0.2-  0.2-
    100411 H06  0.2-  0.7-    100509 B33  1.3-  1.1+    100607 H45  0.4-  0.4+
    100411 H06  0.3-  0.8-    100509 B33  0.4-  0.1+    100607 H45  0.3+  0.2-
    100412 H06  0.3+  0.6-    100509 703  0.3+  0.2+    100607 H45  0.0   0.2+
    100412 H06  0.1-  0.8-    100509 703  1.0-  1.3-    100608 850  0.0   0.2-
    100412 H06  0.7-  1.3-    100509 703  0.8-  1.2-    100608 850  0.3+  0.3+
    100412 704  0.0   0.4-    100509 703  0.3+  1.2-    100609 H15  0.4-  0.8-
    100412 704  1.4+  0.1+    100510 704  0.3+  0.8-    100609 H15  0.2+  0.0
    100412 704  0.2+  0.1+    100510 704  0.9-  0.4-    100609 H15  0.4+  0.5-
    100412 704  0.2+  0.4+    100510 704  1.0+  0.7+    100610 585  0.2-  1.4+
    100412 704  0.4+  0.0     100510 704  1.0+  1.1-    100611 160  0.0   0.5+
    100412 704  0.3+  0.4+    100510 704  0.6+  0.3+    100611 160  0.0   0.4+
    100412 704  0.5-  0.7+    100510 J01  0.0   0.0     100611 160  0.6+  0.1+
    100412 704 (0.6+  3.7+)   100510 J01  0.0   0.1-    100612 703  0.5-  0.7-
    100412 704  0.1+  1.2+    100510 J01  0.0   0.1-    100612 703  0.0   0.4-
    100412 704  1.8+  1.4+    100511 A77  0.8+  0.2-    100612 703  0.3-  1.7-
    100413 J01  0.2+  0.7-    100511 A77  0.4+  0.1-    100612 703  1.4-  1.8-
    100413 J01  0.0   0.5-    100511 A77  0.2+  0.3+    100614 J01  0.1-  0.2-
    100413 J01  0.5-  0.6-    100512 585  0.1-  0.6+    100614 J01  0.3+  0.2-
    100413 H45  1.0+  0.3-    100513 585  0.2-  0.1-    100614 J01  0.1-  0.0
    100413 H45  0.2-  0.2+    100513 585  0.4+  0.1-    100615 850  0.7-  0.1-
    100413 H45  1.3-  0.6+    100513 585  1.4-  0.6-    100615 850  1.0+  0.3-
    100413 H45  0.9-  0.4+    100515 C10  0.2+  0.8+    100615 850  0.1+  0.0
    100413 H45  0.5-  0.6+    100515 C10  0.6+  0.5+    100616 H10  1.0+  0.2+
    100413 H45  0.0   0.2+    100515 C10  0.6+  0.1-    100616 H10  0.4+  0.2-
    100413 H45  0.3+  0.1-    100516 J24  0.6+  0.3-    100616 H10  0.2+  0.5-
    100413 H45  1.0+  0.3-    100516 J24  0.5+  0.5+    100616 H10  0.2+  0.5+
    100414 585  0.3-  0.2+    100516 J24  0.5+  0.3+    100616 H10  0.4-  0.1+
    100414 585  0.1+  0.1-    100516 703  0.6-  0.5-    100616 H10  1.2-  0.7+
    100414 585  0.1-  0.5-    100516 703  0.9-  0.3-    100616 H10  0.2-  0.1+
    100414 585  0.3+  0.3+    100516 703  0.4-  0.4+    100618 H10  0.1+  0.0
    100414 585  0.2+  0.5+    100516 703  0.7-  0.6-    100618 H10  0.0   0.7-
    100414 585  0.3-  1.0+    100516 D93  1.1+  1.7+    100618 H10  0.2+  0.1-
    100414 585  0.1-  0.3+    100516 D93  0.6+  0.4-    100618 703  0.0   0.6-
    100415 H45  1.0-  0.2+    100516 D93  1.4-  1.9-    100618 703 (0.2-  2.1-)
    100415 H45  0.6-  0.5+    100518 A77  0.0   1.1+    100618 703  0.6+  0.5-
    100415 H45  0.3-  0.3+    100518 A77  0.4+  0.6+    100618 703  0.1+  2.0-
    100415 H45  0.2-  0.6+    100518 A77  0.8+  0.3-    100618 J01  0.4-  0.2-
    100415 H45  0.8-  0.5+    100521 213  0.4-  0.0     100618 J01  0.4-  0.1-
    100415 H45  0.1-  0.1+    100521 213  0.3-  0.0     100618 212  0.2-  0.4+
    100415 H45  0.0   0.5+    100521 213  0.2+  0.1+    100618 J01  0.1-  0.1+
    100416 A77  0.4-  0.4+    100521 941  0.0   0.2+    100619 850  0.4+  1.5+
    100416 A77  0.0   1.3-    100521 941  0.3+  0.1+    100619 850  0.4+  0.8+
    100417 900  0.3-  1.1-    100521 941  0.1-  0.4+    100619 850  0.9+  0.5+
    100417 900  0.3-  0.5-    100521 D93 (1.4-  2.3-)   100619 850  0.0   0.0
    100417 215  1.5+  0.9+    100521 D93  1.7-  0.4+    100619 850  0.3+  0.1+
    100417 215  0.2+  0.1+    100521 D93  1.9+  0.1+    100619 850  0.0   0.4-
    100417 215  0.2-  0.2+    100522 H45  0.5+  0.3-    100620 G96  0.2-  0.7-
    100418 B09  0.8-  1.7-    100522 H45  0.3+  0.4-    100620 G96  0.1-  0.6-
    100418 B09  0.4-  1.2-    100522 H45  0.6-  0.7-    100620 G96  0.6-  0.3+
    100419 585  1.2+  0.1+    100522 H45  0.4-  0.1-    100620 G96  0.4+  1.1+
    100419 585  0.1+  0.0     100522 H45  0.5-  0.0     100621 850  0.1+  0.0
    100419 585  0.0   0.0     100522 H45  0.3-  0.6-    100621 850  0.5-  0.9+
    100419 585  0.0   0.2+    100522 H45  0.1-  0.1+    100621 850  0.8+  0.5+
    100419 585  0.7+  0.4-    100522 B33  0.4+  0.1+    100621 850  1.0-  0.2+
    100420 204  0.3+  0.1-    100522 B33  0.4+  0.2-
    100420 204  0.2+  0.2-    100522 B33  0.3+  0.2+
    
         The "original" and "future" barycentric values of 1/a are +0.011116
    and +0.010947 (+/- 0.000029) AU^-1, respectively.
    
    Brian G. Marsden             (C) Copyright 2010 MPC           M.P.E.C. 2010-M41
    

    Read MPEC 2010-M40 Read MPEC 2010-M42


    MPEC number:

    Enter an MPEC number in one of the following forms:

    • 1997-B01 (the full form)
    • J97B01 (the packed version of the full form)
    • B01 (the abbreviated form)